CW5391 Weather Reports


Display with metric or nautical units.
time (UTC)temp
F
wind
direction
speed
MPH
gust
MPH
rain 1hr
in
rain 24hr
in
rain mn
in
humidity
%
barometer
mb
20260902051354 66 62 1.0 5.0 0.00 0.28 0.00 86 1015.0
20260902050826 66 128 2.0 4.0 0.00 0.28 0.00 86 1015.0
20260902050322 66 317 2.0 5.0 0.00 0.28 0.00 86 1015.0
20260902045834 66 229 2.0 5.0 0.00 0.28 0.00 86 1014.9
20260902045325 66 101 2.0 5.0 0.00 0.28 0.00 86 1014.9
20260902044832 66 18 2.0 7.0 0.00 0.28 0.00 85 1014.9
20260902044323 66 78 1.0 7.0 0.00 0.28 0.00 85 1014.9
20260902043831 66 355 1.0 7.0 0.00 0.28 0.00 86 1014.9
20260902043318 66 265 2.0 7.0 0.00 0.28 0.00 85 1014.9
20260902042829 66 107 2.0 7.0 0.00 0.28 0.00 86 1014.8
20260902042315 65 113 2.0 7.0 0.00 0.28 0.00 86 1014.8
20260902041845 65 5 2.0 7.0 0.00 0.28 0.00 86 1014.8
20260902041333 65 329 1.0 5.0 0.00 0.28 0.00 86 1014.7
20260902040824 65 51 1.0 5.0 0.00 0.28 0.00 87 1014.7
20260902040400 65 41 327.0 5.0 0.00 0.28 0.28 87 1014.7
20260902035815 65 158 327.0 5.0 0.00 0.28 0.28 87 1014.6
20260902035318 65 175 327.0 2.0 0.00 0.28 0.28 86 1014.6
20260902034830 0 0.0 0.0 0.00 0.28 0.28 1014.6
20260902034315 0 0.0 0.0 0.00 0.28 0.28 1014.3
20260902033839 0 0.0 0.0 0.00 0.28 0.28 1014.3
20260902033331 0 0.0 0.0 0.00 0.28 0.28 1014.3
20260902032814 0 0.0 0.0 0.00 0.28 0.28 1013.9
20260902032317 0 0.0 0.0 0.00 0.28 0.28 1013.9
20260902031821 0 0.0 0.0 0.00 0.28 0.28 1013.9
20260902031315 0 0.0 0.0 0.00 0.28 0.28 1013.8
20260902030840 0 0.0 0.0 0.00 0.28 0.28 1013.8
20260902030342 0 0.0 0.0 0.00 0.28 0.28 1013.8
20260902025833 0 0.0 0.0 0.00 0.28 0.28 1014.1
20260902025314 0 0.0 0.0 0.00 0.28 0.28 1014.1
20260902024817 0 0.0 0.0 0.00 0.28 0.28 1014.1
20260902024316 0 0.0 0.0 0.00 0.28 0.28 1014.3
20260902023815 0 0.0 0.0 0.00 0.28 0.28 1014.3
20260902023318 0 0.0 0.0 0.00 0.28 0.28 1014.3
20260902022821 0 0.0 0.0 0.00 0.28 0.28 1014.0
20260902022315 0 0.0 0.0 0.00 0.28 0.28 1014.0
20260902021839 0 0.0 0.0 0.00 0.28 0.28 1014.0
20260902021322 0 0.0 0.0 0.00 0.28 0.28 1014.2
20260902020323 0 0.0 0.0 0.00 0.28 0.28 1014.2
20260902015826 0 0.0 0.0 0.00 0.28 0.28 1014.0
20260902015330 0 0.0 0.0 0.00 0.28 0.28 1014.0
20260902014813 0 0.0 0.0 0.00 0.28 0.28 1014.0
20260902014316 0 0.0 0.0 0.00 0.28 0.28 1013.7
20260902013838 0 0.0 0.0 0.00 0.28 0.28 1013.7
20260902013328 0 0.0 0.0 0.00 0.28 0.28 1013.7
20260902012814 0 0.0 0.0 0.00 0.28 0.28 1013.8
20260902012317 0 0.0 0.0 0.00 0.28 0.28 1013.8
20260902011843 0 0.0 0.0 0.00 0.28 0.28 1013.8
20260902011339 0 0.0 0.0 0.00 0.28 0.28 1013.8
20260902010904 0 0.0 0.0 0.00 0.28 0.28 1013.8
20260902010316 0 0.0 0.0 0.00 0.28 0.28 1013.8
20260902005332 67 30 2.0 9.0 0.00 0.28 0.28 84 1013.6
20260902004824 67 298 2.0 9.0 0.00 0.28 0.28 84 1013.6
20260902004331 67 190 3.0 9.0 0.00 0.28 0.28 84 1013.8
20260902003834 67 311 3.0 9.0 0.00 0.28 0.28 84 1013.8
20260902003327 67 36 3.0 9.0 0.00 0.28 0.28 85 1013.8
20260902002819 67 340 3.0 9.0 0.00 0.28 0.28 85 1013.5
20260902002325 67 53 3.0 8.0 0.00 0.28 0.28 85 1013.5
20260902001902 67 61 2.0 8.0 0.00 0.28 0.28 85 1013.5
20260902001326 67 325 2.0 8.0 0.00 0.28 0.28 85 1013.3
20260902000829 67 327 2.0 8.0 0.00 0.28 0.28 85 1013.3
20260902000323 67 121 2.0 9.0 0.00 0.28 0.28 85 1013.3
20260901235832 67 27 3.0 9.0 0.00 0.28 0.28 85 1013.2
20260901235327 67 198 3.0 9.0 0.00 0.28 0.28 85 1013.2
20260901234830 67 265 2.0 6.0 0.00 0.28 0.28 85 1013.2
20260901234312 67 106 2.0 6.0 0.00 0.28 0.28 86 1013.2
20260901233818 67 161 2.0 6.0 0.00 0.28 0.28 86 1013.2
20260901233320 67 159 2.0 8.0 0.00 0.28 0.28 86 1013.2
20260901232824 66 196 3.0 8.0 0.00 0.28 0.28 86 1013.2
20260901232328 66 265 2.0 7.0 0.00 0.28 0.28 86 1013.2
20260901231831 66 136 2.0 5.0 0.00 0.28 0.28 86 1013.2
20260901231316 67 327 2.0 8.0 0.00 0.28 0.28 86 1013.2
20260901230819 67 271 2.0 8.0 0.00 0.28 0.28 86 1013.2
20260901230351 67 242 3.0 10.0 0.00 0.28 0.28 86 1013.2
20260901225818 67 5 3.0 10.0 0.00 0.28 0.28 86 1012.9
20260901225324 67 146 3.0 9.0 0.00 0.28 0.28 86 1012.9
20260901224827 67 165 3.0 9.0 0.00 0.28 0.28 86 1012.9
20260901224331 67 167 2.0 8.0 0.00 0.28 0.28 87 1013.2
20260901223842 67 80 3.0 6.0 0.00 0.28 0.28 87 1013.2
20260901223424 67 240 3.0 6.0 0.00 0.28 0.28 87 1013.2
20260901222836 67 240 3.0 6.0 0.00 0.28 0.28 87 1013.2
20260901222318 67 92 3.0 9.0 0.00 0.28 0.28 87 1013.2
20260901221830 67 94 3.0 9.0 0.00 0.28 0.28 86 1013.2
20260901221319 67 336 2.0 9.0 0.00 0.28 0.28 86 1013.2
20260901220828 67 269 3.0 9.0 0.00 0.28 0.28 86 1013.2
20260901220319 67 153 2.0 8.0 0.00 0.28 0.28 86 1013.2
20260901215834 67 112 3.0 10.0 0.00 0.28 0.28 87 1013.2
20260901215331 67 47 3.0 10.0 0.00 0.28 0.28 87 1013.2
20260901214820 67 324 3.0 10.0 0.00 0.28 0.28 86 1013.2
20260901214324 68 30 2.0 8.0 0.00 0.28 0.28 86 1013.1
20260901213832 68 176 2.0 8.0 0.00 0.28 0.28 86 1013.1
20260901213329 68 319 2.0 11.0 0.00 0.28 0.28 85 1013.1
20260901212814 68 37 3.0 11.0 0.00 0.28 0.28 85 1012.7
20260901212323 68 17 2.0 11.0 0.00 0.28 0.28 86 1012.7
20260901211835 68 87 3.0 11.0 0.00 0.28 0.28 86 1012.7
20260901211316 68 92 3.0 11.0 0.00 0.28 0.28 85 1012.7
20260901210819 68 114 2.0 8.0 0.00 0.28 0.28 85 1012.7
20260901210330 68 261 2.0 6.0 0.00 0.28 0.28 85 1012.7
20260901205819 68 56 2.0 5.0 0.00 0.28 0.28 85 1012.7
20260901205343 68 220 2.0 6.0 0.00 0.28 0.28 85 1012.7
20260901204829 69 286 2.0 6.0 0.00 0.28 0.28 85 1012.7
20260901204328 69 78 2.0 6.0 0.00 0.28 0.28 86 1012.6
20260901203821 69 206 2.0 6.0 0.00 0.28 0.28 86 1012.6
20260901203328 69 279 2.0 7.0 0.00 0.28 0.28 84 1012.6
20260901202327 69 136 2.0 6.0 0.00 0.28 0.28 84 1012.7
20260901201814 70 258 2.0 6.0 0.00 0.28 0.28 83 1012.7
20260901201321 70 284 2.0 5.0 0.00 0.28 0.28 84 1012.7
20260901200821 70 316 1.0 4.0 0.00 0.28 0.28 84 1012.7
20260901200314 70 360 1.0 7.0 0.00 0.28 0.28 84 1012.7
20260901195820 70 355 2.0 7.0 0.00 0.28 0.28 82 1012.7
20260901195327 71 302 2.0 7.0 0.00 0.28 0.28 84 1012.7
20260901194824 71 249 2.0 7.0 0.00 0.28 0.28 84 1012.7
20260901194341 71 38 2.0 7.0 0.00 0.28 0.28 85 1012.5
20260901193832 70 284 2.0 5.0 0.00 0.28 0.28 87 1012.5
20260901193319 70 347 2.0 7.0 0.00 0.28 0.28 85 1012.5
20260901192819 70 319 3.0 8.0 0.00 0.28 0.28 85 1012.3
20260901192348 70 288 3.0 8.0 0.01 0.28 0.28 87 1012.3
20260901191829 70 193 1.0 5.0 0.01 0.28 0.28 88 1012.3
20260901191332 70 252 2.0 6.0 0.01 0.28 0.28 86 1012.6
20260901190826 70 140 3.0 7.0 0.01 0.28 0.28 87 1012.6
20260901190318 70 61 2.0 7.0 0.01 0.28 0.28 92 1012.6
20260901185827 69 281 2.0 7.0 0.01 0.28 0.28 88 1012.6
20260901185331 69 57 2.0 5.0 0.01 0.28 0.28 90 1012.6
20260901184824 68 329 3.0 5.0 0.01 0.28 0.28 91 1012.6
20260901184337 67 248 2.0 4.0 0.01 0.28 0.28 92 1012.8
20260901183829 67 275 1.0 5.0 0.01 0.28 0.28 94 1012.8
20260901183323 67 355 2.0 5.0 0.01 0.28 0.28 94 1012.8
20260901182832 67 315 2.0 5.0 0.01 0.28 0.28 94 1012.6
20260901182336 66 302 2.0 4.0 0.00 0.27 0.27 94 1012.6
20260901181838 66 260 2.0 7.0 0.00 0.27 0.27 94 1012.6
20260901181323 66 292 2.0 7.0 0.00 0.27 0.27 93 1012.6
20260901180814 66 296 2.0 7.0 0.00 0.27 0.27 94 1012.6
20260901180319 66 355 2.0 8.0 0.00 0.27 0.27 93 1012.6
20260901175825 66 173 2.0 8.0 0.00 0.27 0.27 93 1012.5
20260901175327 66 296 2.0 7.0 0.00 0.27 0.27 93 1012.5
20260901174831 66 240 2.0 5.0 0.00 0.27 0.27 93 1012.5
20260901174335 66 276 2.0 4.0 0.00 0.27 0.27 93 1012.6
20260901173840 66 254 2.0 4.0 0.00 0.27 0.27 93 1012.6
20260901173331 66 261 2.0 4.0 0.00 0.27 0.27 93 1012.6
20260901172818 66 277 1.0 4.0 0.00 0.27 0.27 94 1012.7
20260901172348 66 160 1.0 4.0 0.00 0.27 0.27 93 1012.7
20260901171834 66 163 2.0 5.0 0.00 0.27 0.27 93 1012.7
20260901171340 66 317 2.0 5.0 0.00 0.27 0.27 92 1012.7
20260901170840 66 348 2.0 5.0 0.00 0.27 0.27 92 1012.7
20260901170342 66 21 1.0 5.0 0.00 0.27 0.27 92 1012.7
20260901165834 66 339 1.0 4.0 0.00 0.27 0.27 93 1012.8
20260901165327 67 134 1.0 3.0 0.00 0.27 0.27 93 1012.8
20260901164815 67 119 0.0 3.0 0.00 0.27 0.27 95 1012.8
20260901164340 67 325 1.0 3.0 0.00 0.27 0.27 95 1012.9
20260901163829 67 329 1.0 3.0 0.00 0.27 0.27 95 1012.9
20260901163342 67 5 0.0 3.0 0.00 0.27 0.27 96 1012.9
20260901162833 67 279 0.0 1.0 0.00 0.27 0.27 95 1012.9
20260901162329 67 279 0.0 3.0 0.00 0.27 0.27 96 1012.9
20260901161833 67 290 1.0 3.0 0.01 0.27 0.27 96 1012.9
20260901161321 67 344 1.0 3.0 0.01 0.27 0.27 96 1012.7
20260901160820 66 46 1.0 4.0 0.02 0.27 0.27 95 1012.7
20260901160327 66 46 2.0 5.0 0.03 0.27 0.27 94 1012.7
20260901155818 67 346 2.0 6.0 0.03 0.27 0.27 94 1012.7
20260901155332 67 348 2.0 6.0 0.04 0.27 0.27 95 1012.7
20260901154830 67 325 2.0 6.0 0.04 0.27 0.27 95 1012.7
20260901154345 66 297 2.0 6.0 0.05 0.27 0.27 94 1012.1
20260901153816 66 5 4.0 8.0 0.05 0.27 0.27 94 1012.1
20260901153321 66 321 4.0 9.0 0.06 0.27 0.27 93 1012.1
20260901152813 66 337 4.0 9.0 0.07 0.27 0.27 93 1011.3
20260901152341 66 346 3.0 9.0 0.07 0.27 0.27 93 1011.3
20260901151839 65 26 3.0 6.0 0.06 0.26 0.26 94 1011.3
20260901151341 65 281 3.0 5.0 0.06 0.26 0.26 94 1012.0
20260901150813 66 213 2.0 5.0 0.05 0.25 0.25 94 1012.0
20260901150340 66 173 1.0 5.0 0.04 0.24 0.24 94 1012.0
20260901145843 66 178 0.0 5.0 0.04 0.24 0.24 93 1012.5
20260901145359 66 76 0.0 5.0 0.03 0.23 0.23 93 1012.5
20260901144835 66 76 0.0 5.0 0.03 0.23 0.23 93 1012.5
20260901144348 66 124 1.0 5.0 0.02 0.22 0.22 93 1012.6
20260901143836 66 124 1.0 5.0 0.02 0.22 0.22 93 1012.6
20260901143340 66 62 1.0 5.0 0.01 0.21 0.21 91 1012.6
20260901142824 66 31 1.0 5.0 0.00 0.20 0.20 91 1012.3
20260901142339 66 130 1.0 7.0 0.00 0.20 0.20 92 1012.3
20260901141817 66 126 2.0 7.0 0.00 0.20 0.20 92 1012.3
20260901141322 66 261 3.0 7.0 0.00 0.20 0.20 92 1011.9
20260901140848 66 208 3.0 8.0 0.00 0.20 0.20 91 1011.9
20260901140317 66 254 2.0 8.0 0.00 0.20 0.20 92 1011.9
20260901135852 66 272 1.0 7.0 0.00 0.20 0.20 93 1011.7
20260901135320 66 186 3.0 9.0 0.00 0.20 0.20 92 1011.7
20260901134818 66 258 3.0 9.0 0.00 0.20 0.20 94 1011.7
20260901134340 66 261 3.0 6.0 0.00 0.20 0.20 96 1012.1
20260901133816 66 206 3.0 5.0 0.00 0.20 0.20 96 1012.1
20260901133319 66 227 1.0 4.0 0.00 0.20 0.20 96 1012.1
20260901132822 66 224 1.0 3.0 0.00 0.20 0.20 96 1012.5
20260901132318 66 254 1.0 3.0 0.00 0.20 0.20 97 1012.5
20260901131822 66 288 0.0 2.0 0.00 0.20 0.20 97 1012.5
20260901131341 66 288 1.0 3.0 0.00 0.20 0.20 97 1012.7
20260901130810 65 288 0.0 3.0 0.00 0.20 0.20 96 1012.7
20260901130316 65 288 0.0 0.0 0.00 0.20 0.20 96 1012.7
20260901125820 65 288 0.0 1.0 0.00 0.20 0.20 96 1013.2
20260901125331 65 288 0.0 2.0 0.00 0.20 0.20 96 1013.2
20260901124837 65 288 0.0 2.0 0.00 0.20 0.20 96 1013.2
20260901124325 65 288 0.0 2.0 0.00 0.20 0.20 96 1013.1
20260901123317 65 304 1.0 2.0 0.00 0.20 0.20 96 1013.1
20260901122838 65 323 0.0 2.0 0.00 0.20 0.20 97 1012.8
20260901122332 65 251 1.0 3.0 0.00 0.20 0.20 97 1012.8
20260901121823 64 345 1.0 2.0 0.00 0.20 0.20 97 1012.8
20260901121334 64 211 0.0 2.0 0.00 0.20 0.20 96 1013.0
20260901120859 64 216 1.0 2.0 0.00 0.20 0.20 96 1013.0
20260901120322 64 201 0.0 2.0 0.01 0.20 0.20 96 1013.0
20260901115816 64 49 0.0 0.0 0.01 0.20 0.20 96 1013.2
20260901115345 64 49 0.0 0.0 0.02 0.20 0.20 96 1013.2
20260901114836 64 49 0.0 0.0 0.04 0.20 0.20 96 1013.2
20260901114327 64 49 0.0 0.0 0.05 0.20 0.20 96 1013.3
20260901113827 64 49 0.0 0.0 0.08 0.20 0.20 96 1013.3
20260901113318 64 49 0.0 1.0 0.10 0.20 0.20 96 1013.3
20260901112812 64 49 0.0 1.0 0.11 0.20 0.20 95 1013.2
20260901112341 64 49 0.0 1.0 0.12 0.20 0.20 95 1013.2
20260901111818 64 49 0.0 2.0 0.13 0.20 0.20 95 1013.2
20260901111316 64 49 0.0 2.0 0.15 0.20 0.20 95 1012.8
20260901110840 64 42 0.0 2.0 0.16 0.20 0.20 95 1012.8
20260901110318 64 308 0.0 5.0 0.16 0.19 0.19 94 1012.8
20260901105820 64 308 1.0 5.0 0.17 0.19 0.19 94 1011.8
20260901105329 64 308 2.0 5.0 0.17 0.18 0.18 94 1011.8
20260901104812 64 340 2.0 4.0 0.15 0.16 0.16 95 1011.8
20260901104339 64 346 0.0 2.0 0.14 0.14 0.14 95 1012.9
20260901103817 64 23 0.0 1.0 0.12 0.12 0.12 95 1012.9
20260901103325 64 23 0.0 1.0 0.10 0.10 0.10 95 1012.9
20260901102828 64 23 0.0 1.0 0.09 0.09 0.09 94 1013.1
20260901102315 64 23 0.0 2.0 0.08 0.08 0.08 94 1013.1
20260901101823 64 23 1.0 3.0 0.07 0.07 0.07 94 1013.1
20260901101348 64 360 1.0 2.0 0.05 0.05 0.05 94 1013.3
20260901100821 64 32 0.0 2.0 0.04 0.04 0.04 94 1013.3
20260901100318 65 32 0.0 2.0 0.03 0.03 0.03 93 1013.3
20260901095814 65 32 0.0 2.0 0.02 0.02 0.02 93 1012.7
20260901095322 65 32 0.0 0.0 0.01 0.01 0.01 93 1012.7
20260901094836 65 32 0.0 1.0 0.01 0.01 0.01 92 1012.7
20260901094333 65 32 0.0 2.0 0.00 0.00 0.00 92 1012.6
20260901093832 65 32 0.0 2.0 0.00 0.00 0.00 92 1012.6
20260901093325 65 115 0.0 2.0 0.00 0.00 0.00 93 1012.6
20260901092816 65 139 0.0 3.0 0.00 0.00 0.00 92 1012.5
20260901092324 65 158 1.0 3.0 0.00 0.00 0.00 92 1012.5
20260901091823 65 224 0.0 0.0 0.00 0.00 0.00 92 1012.5
20260901091313 65 224 0.0 0.0 0.00 0.00 0.00 91 1012.6
20260901090822 65 224 0.0 0.0 0.00 0.00 0.00 91 1012.6
20260901090354 65 224 0.0 0.0 0.00 0.00 0.00 91 1012.6
20260901085828 66 224 0.0 0.0 0.00 0.00 0.00 91 1012.7
20260901085342 66 224 0.0 2.0 0.00 0.00 0.00 91 1012.7
20260901084833 65 142 0.0 2.0 0.00 0.00 0.00 90 1012.7
20260901084317 65 97 0.0 2.0 0.00 0.00 0.00 91 1012.9
20260901083905 65 77 0.0 2.0 0.00 0.00 0.00 93 1012.9
20260901083322 65 52 0.0 1.0 0.00 0.00 0.00 93 1012.9
20260901082829 65 52 0.0 1.0 0.00 0.00 0.00 93 1012.9
20260901082319 65 52 0.0 0.0 0.00 0.00 0.00 92 1012.9
20260901081817 65 52 0.0 0.0 0.00 0.00 0.00 92 1012.9
20260901081323 65 52 0.0 0.0 0.00 0.00 0.00 92 1012.9
20260901080816 65 52 0.0 0.0 0.00 0.00 0.00 92 1012.9
20260901080349 65 52 0.0 0.0 0.00 0.00 0.00 92 1012.9
20260901075816 65 52 0.0 0.0 0.00 0.00 0.00 92 1013.2
20260901075318 65 52 0.0 1.0 0.00 0.00 0.00 92 1013.2
20260901074831 65 52 0.0 2.0 0.00 0.00 0.00 92 1013.2
20260901074320 65 52 0.0 2.0 0.00 0.00 0.00 92 1013.2
20260901073830 65 82 0.0 2.0 0.00 0.00 0.00 92 1013.2
20260901073328 65 82 0.0 1.0 0.00 0.00 0.00 92 1013.2
20260901072819 65 82 0.0 1.0 0.00 0.00 0.00 92 1012.9
20260901072330 65 82 0.0 1.0 0.00 0.00 0.00 92 1012.9
20260901071841 65 82 0.0 1.0 0.00 0.00 0.00 92 1012.9
20260901071329 65 82 0.0 2.0 0.00 0.00 0.00 91 1012.7
20260901070813 65 48 0.0 2.0 0.00 0.00 0.00 91 1012.7
20260901070346 65 81 0.0 1.0 0.00 0.00 0.00 92 1012.7
20260901065828 65 123 0.0 0.0 0.00 0.00 0.00 92 1013.1
20260901065317 65 123 0.0 1.0 0.00 0.00 0.00 92 1013.1
20260901064819 65 123 0.0 1.0 0.00 0.00 0.00 92 1013.1
20260901064352 65 123 0.0 3.0 0.00 0.00 0.00 92 1013.5
20260901063835 65 123 0.0 2.0 0.00 0.00 0.00 92 1013.5
20260901063317 65 98 0.0 1.0 0.00 0.00 0.00 92 1013.5
20260901062826 65 98 0.0 0.0 0.00 0.00 0.00 92 1013.8
20260901062336 65 98 0.0 0.0 0.00 0.00 0.00 92 1013.8
20260901061848 65 98 0.0 1.0 0.00 0.00 0.00 92 1013.8
20260901061337 65 98 0.0 1.0 0.00 0.00 0.00 92 1013.9
20260901060821 65 98 0.0 1.0 0.00 0.00 0.00 91 1013.9
20260901060352 65 98 0.0 0.0 0.00 0.00 0.00 91 1013.9
20260901055824 65 98 0.0 0.0 0.00 0.00 0.00 91 1013.9
20260901055330 65 98 0.0 0.0 0.00 0.00 0.00 91 1013.9
20260901054831 65 98 0.0 0.0 0.00 0.00 0.00 91 1013.9
20260901054318 65 98 0.0 0.0 0.00 0.00 0.00 91 1014.0
20260901053826 65 98 0.0 0.0 0.00 0.00 0.00 91 1014.0
20260901053340 65 98 0.0 1.0 0.00 0.00 0.00 91 1014.0
20260901052822 65 98 0.0 1.0 0.00 0.00 0.00 91 1014.2
20260901052327 65 98 0.0 0.0 0.00 0.00 0.00 91 1014.2
20260901051825 65 98 0.0 0.0 0.00 0.00 0.00 91 1014.2